www.pogodaiklimat.ru

Погода и климат >> Архив погоды >> Россия >> Красноярский край >> Снежногорск


ПОГОДА в Снежногорске

  • Прогноз погоды в Снежногорске
  • Монитор погоды в Снежногорске

АРХИВ ПОГОДЫ в Снежногорске

Время (UTC), дата Ветер
(напр.,м/с)
 
Видим.   Явления Облачность Т
(С)
Тd
(С)
f
(%)
Тe
(С)
Тes
(С)
Комфортность P
(гПа)
Po
(гПа)
Тmin
(С)
Tmax
(С)
R
(мм)
R24
(мм)
S
(см)
09 15.09 штиль 0 20 км 10/10 600 м
[Sc]
+3.3 -0.2 78 +2 +2 1011.6 1000.0
12 15.09 З 2 20 км 10/10 600 м
[Sc]
+3.1 -0.7 76 0 0 1012.8 1001.2 +3.5
15 15.09 З 1 10 км 4/4 600 м
[Sc]
+1.7 -2.4 74 0 0 1013.3 1001.6
18 15.09 З 3 10 км 6/6 600 м
[Sc]
+0.3 -3.7 74 -4 -4 1014.6 1001.9
21 15.09 З 1 10 км 4/4 600 м
[Sc]
-2.1 -5.1 80 -4 -4 1013.9 1002.0
00 16.09 З 1 20 км 10/10 600 м
[Sc]
-2.0 -4.1 86 -4 -4 1013.9 1002.0 -2.8
03 16.09 штиль 0 20 км 10/10 600 м
[Sc]
+0.6 +0.1 96 -1 -1 1013.5 1001.8 -3.3
06 16.09 Ю 2 20 км {ливн. осадки} 10/10 600 м
[Cb cap]
+2.4 -2.5 70 -1 -1 1012.6 1000.9
09 16.09 ЮВ 2 20 км 10/3 600 м
[Sc Ac trans Ci sp]
+4.0 -2.9 61 +2 +2 1011.1 999.5
12 16.09 ЮВ 3 20 км 10/0 2000 м
[Ac As]
+3.6 -3.8 58 0 0 1009.6 998.0 +4.0 0.3
15 16.09 Ю 3 4000 м дождь 10/0 2000 м
[As op]
+1.7 +1.4 98 -3 -3 1008.5 996.8
18 16.09 ЮВ 4
{10}
4000 м дождь {снег} 10/0 2000 м
[As op]
+1.8 +1.5 98 -3 -3 1006.6 994.9
21 16.09 ЮВ 2 10 км в посл. час дождь 10/0 2000 м
[Ac As]
+2.7 +2.4 98 -1 -1 1005.1 993.5
00 17.09 Ю 2 20 км {дождь} 10/3 600 м
[Sc Ac und]
+3.8 +3.6 99 +1 +1 1004.4 992.8 +0.7 6
03 17.09 В 2 20 км в посл. час ливневой дождь 10/10 600 м
[Cb cap]
+4.6 +4.4 99 +2 +2 1003.8 992.4
06 17.09 ЮВ 3 20 км {ливн. осадки} 10/10 600 м
[Cb cap]
+5.0 +4.8 99 +1 +1 1002.7 991.3
09 17.09 ЮВ 2 20 км {ливн. осадки} 10/10 600 м
[Cb cap]
+6.5 +6.3 99 +4 +4 1001.5 990.1
12 17.09 Ю 2 20 км в посл. час ливневой дождь 10/10 600 м
[Cb cap]
+8.3 +7.8 97 +6 +6 1000.6 989.3 +8.3 1
15 17.09 Ю 3 10 км слаб. ливневой дождь 10/10 600 м
[Cb cap]
+8.5 +8.2 98 +6 +6 1000.2 988.9
18 17.09 Ю 5-10
{10}
10 км {ливн. осадки} 10/10 600 м
[Cb cap]
+8.4 +8.2 99 +5 +5 999.3 988.0
21 17.09 Ю 3
{12}
10 км 10/10 600 м
[Cb cap]
+8.9 +8.5 97 +6 +6 997.7 986.5
00 18.09 В 3 10 км слаб. ливневой дождь 10/10 600 м
[Cb cap]
+8.6 +7.7 94 +6 +6 996.7 985.5 +8.0 2
03 18.09 Ю 4-12
{13}
10 км дождь {ливн. осадки} 10/0 600 м
[As op]
+9.0 +7.6 91 +6 +6 996.0 984.8
06 18.09 ЮВ 4-10
{14}
10 км дождь 10/0 600 м
[As op]
+8.7 +8.5 99 +5 +6 995.9 984.6
09 18.09 ЮВ 4-10
{12}
20 км в посл. час дождь 10/10 600 м
[Sc]
+9.7 +8.9 95 +7 +7 996.7 985.5
12 18.09 ЮВ 2
{10}
20 км {ливн. осадки, дождь} 10/10 600 м
[Cb cap]
+8.2 +8.0 99 +6 +6 999.1 987.8 +9.7 5
15 18.09 ЮЗ 1 10 км дождь 10/0
[As op]
+4.6 +4.4 99 +3 +3 1003.0 991.6
18 18.09 ЮЗ 1 10 км дождь 10/0 600 м
[As op]
+4.5 +4.3 99 +3 +3 1006.5 995.0
21 18.09 З 1 10 км {дождь} 10/10 600 м
[Sc]
+5.2 +5.0 99 +4 +4 1007.3 995.8
00 19.09 Ю 1 20 км {дождь} 8/8 600 м
[Sc]
+5.5 +5.3 99 +4 +4 1008.0 996.5 +4.5 0.7
03 19.09 Ю 2 20 км 3/3 600 м
[Sc]
+5.7 +4.1 89 +3 +4 1008.0 996.5
06 19.09 ЮВ 3 20 км 4/3 600 м
[Sc Ac trans]
+9.8 +5.6 75 +8 +9 1006.8 995.5
09 19.09 В 2 20 км 10/10 600 м
[Sc]
+9.7 +4.8 71 +8 +8 1004.6 993.3
12 19.09 В 3 20 км 10/10 600 м
[Sc]
+9.3 +4.1 70 +7 +7 1002.5 991.2 +5.7
15 19.09 В 3 10 км 10/10 600 м
[Sc]
+8.3 +4.1 75 +6 +6 999.9 988.6
18 19.09 В 3 10 км 10/10 600 м
[Sc]
+8.0 +4.3 77 +5 +5 996.9 985.6
21 19.09 В 4
{10}
10 км слаб. дождь 10/0 600 м
[As op]
+7.3 +6.2 93 +4 +4 994.3 983.0
00 20.09 В 3
{10}
20 км {дождь} 10/10 600 м
[Sc]
+6.7 +6.0 95 +3 +3 992.6 981.4 +6.7 3
03 20.09 ЮВ 1 10 км слаб. морось 10/10 600 м
[St]
+6.8 +6.6 99 +6 +6 991.9 980.7 +6.5
06 20.09 ЮВ 1 20 км {морось} 10/10 600 м
[Sc]
+7.9 +7.4 97 +7 +7 989.9 978.7
09 20.09 В 4 20 км 10/10 600 м
[Cb cap]
+9.1 +8.5 96 +6 +6 984.9 973.8
12 20.09 ЮВ 2
{12}
10 км слаб. ливневой дождь 10/10 600 м
[Cb cap]
+8.9 +8.6 98 +7 +7 980.3 969.3 +9.1 4
15 20.09 ЮВ 1 10 км {ливн. осадки} 10/10 600 м
[Cb cap]
+8.6 +8.4 99 +8 +8 978.0 967.0
18 20.09 ЮЗ 3 10 км в посл. час ливневой дождь 10/10 600 м
[Cb cap]
+8.8 +8.6 99 +6 +6 977.8 966.8
21 20.09 Ю 4
{10}
20 км {ливн. осадки} 10/10 600 м
[Cb cap]
+7.8 +7.4 97 +4 +4 977.8 966.7
00 21.09 Ю 3
{10}
10 км слаб. ливневой дождь 10/10 600 м
[Cb cap]
+7.0 +6.8 99 +4 +4 977.5 966.4 +7.0 3
03 21.09 З 3
{10}
10 км слаб. ливневой дождь 10/10 600 м
[Cb cap]
+5.9 +5.7 99 +2 +2 978.3 967.2 +5.9
06 21.09 СЗ 4
{13}
10 км слаб. ливневой дождь 10/10 600 м
[Cb cap]
+3.4 +3.2 99 -2 -2 981.0 969.7
09 21.09 З 6-15
{15}
10 км слаб. ливневой снег 10/10 600 м
[Cb cap]
+1.0 +0.7 98 -6 -6 986.1 974.7
12 21.09 З 5
{15}
20 км {ливн. осадки} 10/10 600 м
[Cb cap]
+4.2 +4.0 99 -1 -1 991.0 979.6 +7.0 7
15 21.09 З 6-15
{16}
10 км слаб. ливневой дождь 10/10 600 м
[Cb cap]
+3.9 +3.7 99 -2 -2 994.1 982.6
18 21.09 З 6-15
{16}
10 км {ливн. осадки} 10/10 600 м
[Cb cap]
+3.7 +3.5 99 -2 -2 996.6 985.1
21 21.09 З 6-15
{17}
10 км 10/10 600 м
[Sc]
+3.3 +3.0 98 -3 -3 999.2 987.7
00 22.09 З 6-15
{16}
20 км 10/10 600 м
[Sc]
+2.6 +0.5 86 -3 -3 1002.4 990.9 +2.6 2
03 22.09 З 6-15
{16}
20 км 6/3 600 м
[Sc Ac trans]
+2.4 -1.6 75 -3 -3 1005.1 993.4
06 22.09 З 5-12
{14}
20 км 6/4 600 м
[Sc]
+5.2 -2.3 58 +1 +2 1008.2 996.7

 

Местоположение метеостанции Снежногорск (Красноярский край, Россия): широта 68.10 долгота 87.77 высота над уровнем моря 94 м.

В архиве по умолчанию представлена погода в Снежногорске за последнюю неделю. Архивные данные за месяц целиком и за предыдущие месяцы, начиная с января 2011 года, Вы можете получить, выбрав интересующий диапазон дат из раскрывающегося списка и нажав кнопку "Ввод!".


*Определитесь, кто Вы:
робот инопланетянин человек

Внимание! Время в таблицах - всемирное. Для получения местного времени необходимо прибавить поправку, которая равна 7 ч.

Смотрите также архив погоды в соседних городах и на ближайших метеорологических станциях:

Погода в Горбиачине (Красноярский край, Россия) (69 км)
Погода в Игарке (Красноярский край, Россия) (86 км)
Погода в Потапово (Красноярский край, Россия) (89 км)
Погода в Светлогорске (Красноярский край, Россия) (131 км)
Погода в Норильске (Красноярский край, Россия) (138 км)
Погода в Курейке (Красноярский край, Россия) (183 км)
Погода в Советской Речке (Красноярский край, Россия) (221 км)
Погода в Туруханске (Красноярский край, Россия) (258 км)
Погода в Агате (Эвенкия, Россия) (278 км)
Погода в Карауле (Красноярский край, Россия) (286 км)

Пояснения к столбцам:

Ветер - указаны скорость ветра в м/с - средняя за 10 мин, порывы в срок и между сроками (в фигурных скобках) и направление, откуда дует ветер: С - северный, СВ - северо-восточный, В - восточный, ЮВ - юго-восточный, Ю - южный, ЮЗ - юго-западный, З - западный, СЗ - северо-западный.
Видимость - горизонтальная дальность видимости в метрах или километрах. При видимости от 1 до 10 км при отсутствии осадков обычно наблюдается дымка, при ухудшении видимости до 1 км и менее - туман. В сухую погоду видимость может ухудшаться дымом, пылью или мглою.
Явления - указаны атмосферные явления, наблюдавшиеся в срок или в последний час перед сроком; фигурными скобками обозначены явления, наблюдавшиеся между сроками (за 1-3 часа до срока); квадратными скобками обозначены град или гололедные отложения с указанием их диаметра в мм.
Облачность - указаны через наклонную черту общая и нижняя облачность в баллах и высота нижней границы облаков в метрах; квадратными скобками обозначены формы облаков: Ci - перистые, Cs - перисто-слоистые, Cc - перисто-кучевые, Ac - высококучевые, As - высокослоистые, Sc - слоисто-кучевые, Ns - слоисто-дождевые, Cu - кучевые, Cb - кучево-дождевые. Подробнее классификацию облаков см. в Атласе облаков (PDF).
T - Температура воздуха - температура, измеренная на высоте 2 м над землей.
Td - Температура точки росы - температура, при понижении до которой содержащийся в воздухе водяной пар достигнет насыщения.
f - Относительная влажность воздуха - влажноcть воздуха, измеренная на высоте 2 м над землей.
Te - Эффективная температура - температура, которую ощущает одетый по сезону человек в тени. Характеристика душности погоды. При расчете учитывается влияние влажности воздуха и скорости ветра на теплоощущения человека.
Tes - Эффективная температура на солнце - температура, которую ощущает человек, с поправкой на солнечный нагрев. Характеристика знойности погоды. Зависит от высоты солнца над горизонтом, облачности и скорости ветра. Ночью, в пасмурную погоду, а также при ветре 12 м/с и более поправка равна нулю.
P - Атмосферное давление - приведенное к уровню моря атмосферное давление.
Po - Атмосферное давление - измеренное на уровне метеостанции атмосферное давление.
Tmin - Минимальная температура - минимум температуры воздуха на высоте 2 м над землей.
Tmax - Максимальная температура - максимум температуры воздуха на высоте 2 м над землей.
R - Количество осадков - Количество выпавших осадков за период времени, мм. При наведении курсора мыши на число - период времени, за который выпало указанное количество осадков.
R24 - Количество осадков - Количество выпавших осадков за 24 часа, мм.
S - Снежный покров - Высота снежного покрова, см. При наведении курсора мыши на число - состояние снежного покрова и степень покрытия местности в баллах.